www.pogodaiklimat.ru

Погода и климат >> Архив погоды >> Венгрия >> Paks


ПОГОДА в Paks

  • Прогноз погоды в Paks
  • Монитор погоды в Paks
  • Климат города

АРХИВ ПОГОДЫ в Paks

Время (UTC), дата Ветер
(напр.,м/с)
 
Видим.   Явления Облачность Т
(С)
Тd
(С)
f
(%)
Тe
(С)
Тes
(С)
Комфортность P
(гПа)
Po
(гПа)
Тmin
(С)
Tmax
(С)
R
(мм)
R24
(мм)
S
(см)
07 11.08 В 1 15 км слабый ливневой дождь, в посл. час гроза 9/6 600 м
[Cu med, cong Ac As]
+22.1 +18.1 78 +27 +29 душно 1019.5 1008.0
08 11.08 СВ 1 20 км в посл. час ливневой дождь 9/4 800 м
[Cu med, cong Ac As Ci sp]
+23.7 +18.1 71 +28 +32 душно 1020.1 1008.7
09 11.08 С 2 25 км {гроза, ливн. осадки} 9/3 1200 м
[Cu med, cong Ac As Ci sp]
+25.0 +17.0 61 +29 +34 душно 1020.5 1009.1
10 11.08 С 2 30 км 9/3 1200 м
[Cu med, cong Ac As]
+25.7 +17.4 60 +30 +34 душно 1020.6 1009.2
11 11.08 С 3 35 км 9/3 1200 м
[Cu med, cong Ac trans Cs]
+26.6 +17.7 58 +31 +36 душно 1020.3 1009.0
12 11.08 С 3 35 км {гроза, ливн. осадки} 8/3 1500 м
[Cu med, cong Ac lent Cs]
+27.3 +17.5 55 +31 +37 душно 1020.0 1008.7 0.1
13 11.08 С 2 35 км 8/3 1500 м
[Cu med, cong Ac lent Cs]
+28.1 +17.3 52 +32 +38 душно 1019.8 1008.5
14 11.08 С 3
{7}
35 км 9/4 1300 м
[Cu med, cong Ac trans Cs]
+28.1 +17.6 53 +32 +35 душно 1019.6 1008.3
15 11.08 С 2
{7}
35 км 8/3 1200 м
[Cu med, cong Ac trans Ci sp]
+27.8 +17.6 54 +32 +34 душно 1019.3 1008.0
16 11.08 С 2 35 км 6/0
[Ac trans Ci sp]
+27.0 +16.9 54 +31 +32 душно 1019.0 1007.7
17 11.08 С 2 30 км 5/0
[Ac trans Ci sp]
+25.6 +17.5 61 +30 +30 душно 1018.8 1007.5
18 11.08 СЗ 1 25 км 5/0
[Ac trans Ci sp]
+24.2 +18.4 70 +29 +29 душно 1019.1 1007.7 +28.4 0.1
19 11.08 штиль 0 20 км 5/0
[Ac trans Ci sp]
+22.1 +18.1 78 +27 +27 душно 1020.0 1008.5
20 11.08 штиль 0 15 км 4/0
[Ac trans Ci sp]
+21.1 +17.9 82 +25 +25 комфорт 1020.2 1008.7
21 11.08 штиль 0 15 км 4/0
[Ci sp]
+20.7 +17.7 83 +24 +24 комфорт 1020.1 1008.6
22 11.08 штиль 0 15 км 3/0
[Ci sp]
+18.9 +17.6 92 +20 +20 1020.4 1008.8
23 11.08 штиль 0 15 км 3/0
[Ci sp]
+18.2 +16.9 92 +19 +19 1020.4 1008.8
00 12.08 штиль 0 15 км 3/0
[Ci sp]
+17.1 +16.3 95 +17 +17 1020.5 1008.8
01 12.08 штиль 0 15 км ясно +16.9 +16.3 96 +17 +17 1020.4 1008.7
02 12.08 С 1 10 км ясно +17.1 +16.0 93 +18 +18 1020.1 1008.4
03 12.08 штиль 0 8000 м ясно +15.8 +15.2 96 +16 +16 1020.1 1008.4
04 12.08 СЗ 1 8000 м ясно +15.5 +14.7 95 +16 +16 1020.0 1008.3
05 12.08 СЗ 1 6000 м ясно +16.0 +15.7 98 +17 +18 1020.5 1008.8
06 12.08 СЗ 1 15 км 3/0
[Ci sp]
+19.2 +15.9 81 +22 +26 комфорт 1020.4 1008.8 +15.0 0
07 12.08 СЗ 2 20 км 3/0
[Ci sp]
+22.6 +14.7 61 +26 +33 жарко 1020.2 1008.7
08 12.08 СВ 1 25 км 3/0
[Ci sp]
+25.3 +14.1 50 +28 +39 жарко 1020.1 1008.7
09 12.08 СВ 1 30 км ясно +28.1 +12.1 37 +29 +45 жарко 1019.9 1008.6
10 12.08 СВ 2 35 км ясно +29.4 +10.0 30 +29 +45 жарко 1019.5 1008.3
11 12.08 СВ 1 35 км ясно +30.6 +10.0 28 +30 +49 жарко 1019.1 1007.9
12 12.08 В 1 35 км ясно +31.6 +9.8 26 +31 +48 жарко 1018.5 1007.4
13 12.08 З 1 35 км ясно +32.0 +10.7 27 +32 +46 жарко 1018.0 1006.9
14 12.08 Ю 2 35 км ясно +32.2 +9.7 25 +32 +40 жарко 1017.4 1006.3
15 12.08 ЮВ 1 35 км ясно +32.6 +10.0 25 +32 +38 жарко 1016.7 1005.6
16 12.08 Ю 2 35 км ясно +31.3 +10.6 28 +31 +33 жарко 1016.4 1005.3
17 12.08 ЮВ 1 35 км 3/0
[Ci sp]
+30.8 +10.7 29 +31 +31 жарко 1015.8 1004.7
18 12.08 штиль 0 30 км 3/0
[Ci sp]
+27.3 +12.1 39 +29 +29 жарко 1015.7 1004.5 +33.1 0
19 12.08 штиль 0 25 км ясно +22.3 +13.1 56 +25 +25 комфорт 1016.0 1004.6
20 12.08 СВ 1 20 км ясно +20.5 +13.0 62 +24 +24 комфорт 1016.1 1004.6
21 12.08 штиль 0 15 км ясно +18.6 +13.0 70 +19 +19 1016.1 1004.5
22 12.08 штиль 0 15 км ясно +17.8 +13.5 76 +18 +18 1016.1 1004.5
23 12.08 штиль 0 15 км ясно +17.5 +14.2 81 +17 +17 1015.7 1004.1
00 13.08 штиль 0 10 км ясно +16.6 +13.7 83 +16 +16 1015.5 1003.8
01 13.08 штиль 0 10 км ясно +16.1 +14.1 88 +16 +16 1015.2 1003.5
02 13.08 штиль 0 10 км ясно +16.0 +13.8 87 +16 +16 1015.0 1003.3
03 13.08 штиль 0 10 км ясно +15.4 +13.9 91 +15 +15 1014.7 1003.0
04 13.08 штиль 0 10 км 4/0
[Ac lent Ci sp]
+15.1 +13.6 91 +15 +15 1014.6 1002.9
05 13.08 штиль 0 15 км ясно +15.7 +14.2 91 +15 +17 1014.4 1002.7
06 13.08 штиль 0 20 км ясно +20.8 +16.8 78 +24 +29 комфорт 1014.0 1002.5 +14.8 0
07 13.08 Ю 2 25 км ясно +24.8 +17.5 64 +29 +35 душно 1013.7 1002.4
08 13.08 Ю 3 30 км ясно +28.3 +16.9 50 +32 +41 душно 1013.5 1002.3
09 13.08 Ю 3
{7}
35 км ясно +30.4 +16.8 44 +34 +45 очень
душно
1013.3 1002.2
10 13.08 Ю 3
{8}
35 км ясно +31.3 +16.1 40 +34 +47 душно 1013.0 1001.9
11 13.08 Ю 4
{8}
35 км 1/1 1500 м
[Cu hum]
+32.2 +15.7 37 +35 +44 очень
душно
1012.6 1001.6
12 13.08 Ю 3
{7}
35 км 1/1 1500 м
[Cu hum]
+32.7 +16.1 37 +35 +46 душно 1012.0 1001.0
13 13.08 Ю 4 35 км 3/3 1500 м
[Cu hum]
+33.4 +15.9 35 +36 +41 очень
душно
1011.5 1000.5
14 13.08 Ю 3 35 км 1/1 1500 м
[Cu hum]
+33.2 +16.1 36 +36 +42 очень
душно
1010.8 999.8
15 13.08 Ю 3
{7}
35 км 3/3 1500 м
[Cu hum]
+32.9 +16.3 37 +36 +39 очень
душно
1010.2 999.2
16 13.08 Ю 2
{7}
35 км 1/1 1500 м
[Cu hum]
+32.0 +16.3 39 +35 +37 очень
душно
1009.7 998.7
17 13.08 Ю 2 30 км 1/1 1500 м
[Cu hum]
+31.1 +17.1 43 +35 +35 очень
душно
1009.2 998.2
18 13.08 Ю 1 20 км 1/0
[Ci sp]
+28.7 +17.9 52 +33 +33 очень
душно
1009.2 998.1 +33.6
19 13.08 ЮЗ 1 20 км ясно +25.5 +18.4 65 +30 +30 душно 1009.8 998.6
20 13.08 штиль 0 20 км ясно +23.5 +17.9 71 +28 +28 душно 1009.9 998.6
21 13.08 штиль 0 20 км ясно +21.6 +17.6 78 +26 +26 душно 1010.1 998.7
22 13.08 штиль 0 20 км ясно +20.1 +17.9 87 +23 +23 комфорт 1010.5 999.0
23 13.08 штиль 0 15 км ясно +19.2 +17.3 89 +21 +21 комфорт 1010.6 999.1
00 14.08 Ю 1 15 км ясно +18.3 +16.3 88 +20 +20 1010.7 999.2
01 14.08 штиль 0 10 км 3/0
[Ci sp]
+18.2 +17.0 93 +19 +19 1010.4 998.9
02 14.08 штиль 0 10 км 3/0
[Ci sp]
+18.3 +17.0 92 +19 +19 1010.2 998.7
03 14.08 штиль 0 10 км 8/0
[Cs]
+18.6 +17.6 94 +20 +20 1010.3 998.8
04 14.08 Ю 1 5000 м дымка 8/0
[Ac lent Cs]
+17.8 +17.0 95 +19 +19 1011.0 999.4
05 14.08 ЮЗ 1 10 км 5/1 1000 м
[Cu med, cong Ac lent Ci sp]
+19.1 +17.2 89 +22 +23 комфорт 1011.1 999.6
06 14.08 штиль 0 10 км 4/1 1000 м
[Cu med, cong Ci sp]
+19.4 +17.5 89 +21 +25 комфорт 1011.3 999.8 +17.8
07 14.08 Ю 1 15 км 4/0
[Ci sp]
+24.0 +18.2 70 +28 +35 душно 1011.3 1000.0
08 14.08 Ю 2 20 км 4/0
[Ci sp]
+27.4 +17.9 56 +32 +41 очень
душно
1011.3 1000.1
09 14.08 Ю 2 25 км 4/0
[Ci sp]
+29.6 +17.1 47 +33 +46 душно 1011.2 1000.1
10 14.08 ЮЗ 3 30 км 4/1 1200 м
[Cu med, cong Ci sp]
+30.8 +17.5 45 +35 +45 очень
душно
1011.1 1000.0
11 14.08 Ю 3 35 км 5/4 1200 м
[Cu med, cong Ci sp]
+31.8 +17.7 43 +36 +43 очень
душно
1010.6 999.6
12 14.08 ЮЗ 3 35 км 5/5 1200 м
[Cu med, cong]
+31.5 +16.3 40 +34 +40 душно 1010.1 999.1
13 14.08 ЮВ 1 35 км 5/5 1200 м
[Cu med, cong]
+31.1 +16.7 42 +34 +41 душно 1009.7 998.7
14 14.08 СВ 2 25 км гроза, ливневой дождь 6/6 1200 м
[Cb cap]
+27.1 +20.9 69 +34 +37 очень
душно
1009.6 998.4
15 14.08 С 1 20 км гроза без осадков {ливн. осадки} 9/9 800 м
[Cb cap]
+28.0 +19.0 58 +33 +34 очень
душно
1009.8 998.6
16 14.08 С 3
{12}
15 км гроза, ливневой дождь 9/9 800 м
[Cb cap]
+19.9 +18.2 90 +23 +23 комфорт 1012.3 1000.8
17 14.08 З 1 10 км в посл. час гроза 10/5 800 м
[Cu med, cong Ac As]
+19.8 +18.3 91 +24 +24 комфорт 1012.3 1000.8
18 14.08 ЮВ 1 8000 м {гроза, ливн. осадки} 9/5 600 м
[Cu med, cong Ac As]
+20.0 +19.0 94 +24 +24 комфорт 1012.4 1000.9 5
19 14.08 СЗ 1 6000 м 6/3 800 м
[Cu med, cong Ac trans Ci sp]
+19.1 +18.1 94 +22 +22 комфорт 1011.7 1000.2
20 14.08 штиль 0 6000 м 4/0
[Ci sp]
+18.4 +17.8 96 +19 +19 1013.0 1001.4
21 14.08 З 1 6000 м 5/0
[Ci sp]
+18.6 +18.3 98 +21 +21 комфорт 1013.3 1001.8
22 14.08 З 1 6000 м 5/0
[Ci sp]
+18.7 +18.4 98 +21 +21 комфорт 1013.5 1002.0
23 14.08 штиль 0 4000 м дымка 5/0
[Ci sp]
+17.7 +17.2 97 +18 +18 1014.2 1002.6
00 15.08 штиль 0 4000 м дымка 5/0
[Ac trans Ci sp]
+17.6 +17.4 99 +18 +18 1014.9 1003.3
01 15.08 З 1 4000 м дымка 8/0
[Ac As]
+17.9 +17.7 99 +19 +19 1014.2 1002.6
02 15.08 З 1 4000 м дымка 6/0
[Ac As]
+17.7 +17.4 98 +19 +19 1013.4 1001.8
03 15.08 штиль 0 4000 м дымка 6/0
[Ac As]
+16.9 +16.6 98 +17 +17 1013.5 1001.9
04 15.08 штиль 0 4000 м дымка 6/1 800 м
[Cu med, cong Ac As]
+16.4 +16.1 98 +16 +16 1013.8 1002.2
05 15.08 штиль 0 6000 м 6/0
[Ac trans Ci sp]
+17.0 +17.0 100 +17 +18 1014.4 1002.8
06 15.08 СЗ 1 8000 м 9/0
[Ac As]
+19.2 +17.7 91 +22 +24 комфорт 1014.7 1003.2 +16.3
07 15.08 СЗ 2 15 км 9/5 800 м
[Sc Ac As]
+20.4 +16.2 77 +24 +25 комфорт 1015.2 1003.7
08 15.08 СЗ 2 20 км 9/4 1200 м
[Sc Ac As]
+20.6 +15.8 74 +24 +27 комфорт 1015.4 1003.9
09 15.08 С 3
{8}
25 км 9/3 1500 м
[Sc Ac As]
+21.7 +15.3 67 +25 +28 комфорт 1015.9 1004.4
10 15.08 СЗ 3
{7}
30 км 9/3 1000 м
[Cu Sc Ac As]
+22.7 +15.8 65 +27 +30 душно 1016.1 1004.7
11 15.08 СЗ 3
{7}
35 км 9/1 1500 м
[Sc Ac As Ci sp]
+24.8 +16.2 59 +28 +35 жарко 1015.8 1004.5
12 15.08 С 2
{7}
35 км 9/1 1200 м
[Cu hum Ac trans Cs]
+25.8 +16.1 55 +29 +36 душно 1015.9 1004.6
13 15.08 СЗ 3 35 км 9/1 1200 м
[Cu hum Ac trans Cs]
+27.1 +16.7 53 +31 +36 душно 1015.3 1004.1
14 15.08 С 3 35 км 9/1 1300 м
[Cu hum Ac trans Cs]
+27.7 +16.7 51 +31 +35 душно 1015.2 1004.0
15 15.08 С 3
{7}
35 км 9/1 1300 м
[Cu hum Ac trans Cs]
+28.3 +15.6 46 +31 +33 душно 1015.2 1004.0
16 15.08 СЗ 3
{7}
35 км 9/0
[Cs]
+27.2 +15.2 48 +30 +31 душно 1015.1 1003.9
17 15.08 СЗ 1 35 км 9/0
[Cs]
+26.0 +15.4 52 +29 +29 душно 1015.3 1004.0
18 15.08 СЗ 1 35 км 9/0
[Ac cast Cs]
+24.7 +15.3 56 +28 +28 душно 1015.6 1004.3 +28.3
19 15.08 штиль 0 30 км 9/0
[Cs]
+21.7 +16.0 70 +25 +25 комфорт 1016.2 1004.7
20 15.08 С 1 25 км 9/0
[Cs]
+20.8 +16.2 75 +25 +25 комфорт 1016.6 1005.1
21 15.08 С 1 25 км 9/0
[Cs]
+20.8 +15.6 72 +25 +25 комфорт 1017.0 1005.5
22 15.08 СВ 1 20 км 9/0
[Cs]
+21.4 +17.8 80 +26 +26 душно 1017.1 1005.6
23 15.08 СВ 1 20 км 9/0
[Cs]
+20.3 +17.7 85 +25 +25 комфорт 1017.2 1005.7
00 16.08 С 1 15 км 9/0
[Cs]
+19.3 +17.1 87 +22 +22 комфорт 1017.2 1005.6
01 16.08 штиль 0 10 км 5/0
[Ci sp]
+17.7 +16.4 92 +18 +18 1017.2 1005.6
02 16.08 СЗ 1 10 км 5/0
[Ci sp]
+16.9 +15.9 94 +18 +18 1017.2 1005.5
03 16.08 СЗ 1 10 км 9/0
[Cs]
+16.9 +16.3 96 +18 +18 1017.3 1005.6
04 16.08 С 1 6000 м 9/0
[Cs]
+16.7 +16.1 96 +18 +18 1017.5 1005.8
05 16.08 С 1 12 км 9/0
[Cs]
+16.8 +16.3 97 +18 +19 1017.7 1006.0
06 16.08 С 1 18 км 5/0
[Ci sp]
+19.6 +17.0 85 +23 +26 комфорт 1017.7 1006.1 +16.3 0
07 16.08 С 3 25 км 4/0
[Ci sp]
+22.6 +15.9 66 +27 +32 душно 1017.4 1006.0
08 16.08 СВ 3 30 км 3/0
[Ci sp]
+24.4 +16.1 60 +28 +35 душно 1017.5 1006.1
09 16.08 СВ 3 35 км 3/0
[Ci sp]
+25.6 +15.3 53 +29 +39 душно 1017.5 1006.2
10 16.08 СВ 3 35 км 3/0
[Ci sp]
+26.8 +14.9 48 +29 +41 жарко 1017.2 1005.9
11 16.08 СВ 4
{8}
35 км 5/3 1500 м
[Cu hum Ci sp]
+28.0 +15.0 45 +31 +37 душно 1016.7 1005.5
12 16.08 СВ 3 35 км 5/3 1500 м
[Cu med, cong Ci sp]
+29.2 +15.0 42 +32 +39 душно 1016.4 1005.2
13 16.08 СВ 3 35 км 5/3 1500 м
[Cu med, cong Ci sp]
+29.2 +14.2 40 +31 +38 жарко 1016.0 1004.8
14 16.08 СВ 2
{9}
35 км 5/3 1500 м
[Cu med, cong Ac lent Ci sp]
+28.5 +14.3 42 +31 +35 душно 1015.6 1004.4
15 16.08 С 2 35 км 5/3 1500 м
[Cu med, cong Ac lent Ci sp]
+28.7 +13.8 40 +31 +33 жарко 1015.3 1004.1
16 16.08 СВ 2 35 км 4/1 1500 м
[Cu med, cong Ac lent Ci sp]
+29.4 +13.6 38 +31 +32 жарко 1015.1 1003.9
17 16.08 С 2 35 км 3/0
[Ci sp]
+28.4 +13.9 41 +30 +31 жарко 1015.1 1003.9
18 16.08 штиль 0 30 км 4/0
[Ci sp]
+25.3 +14.7 52 +28 +28 жарко 1015.4 1004.1 +29.8
19 16.08 С 1 25 км ясно +21.8 +14.9 65 +25 +25 комфорт 1015.9 1004.4
20 16.08 штиль 0 20 км ясно +19.4 +15.1 76 +21 +21 комфорт 1016.0 1004.5
21 16.08 штиль 0 15 км ясно +18.0 +15.3 84 +18 +18 1016.0 1004.4
22 16.08 штиль 0 15 км ясно +17.4 +15.0 86 +17 +17 1016.1 1004.5
23 16.08 штиль 0 15 км ясно +17.1 +14.9 87 +17 +17 1016.1 1004.5
00 17.08 штиль 0 15 км ясно +16.6 +14.6 88 +16 +16 1016.1 1004.4
01 17.08 штиль 0 8000 м ясно +15.8 +14.3 91 +16 +16 1016.1 1004.4
02 17.08 штиль 0 8000 м ясно +15.4 +14.3 93 +15 +15 1016.0 1004.3
03 17.08 штиль 0 6000 м ясно +15.2 +14.2 94 +15 +15 1015.7 1004.0
04 17.08 СЗ 1 6000 м ясно +14.5 +13.9 96 +15 +15 1016.1 1004.4
05 17.08 штиль 0 8000 м ясно +15.3 +14.7 96 +15 +16 1016.3 1004.6
06 17.08 СВ 1 15 км ясно +20.3 +16.7 80 +24 +28 комфорт 1016.2 1004.7 +14.5
07 17.08 В 1 20 км ясно +22.0 +17.2 74 +26 +34 душно 1016.3 1004.9
08 17.08 СВ 1 25 км ясно +24.8 +17.8 65 +29 +40 душно 1016.2 1004.9
09 17.08 В 1 30 км ясно +27.6 +18.0 56 +32 +47 очень
душно
1016.1 1004.9
10 17.08 В 1 35 км 3/3 1300 м
[Cu med, cong]
+28.9 +17.8 51 +33 +45 очень
душно
1016.0 1004.8
11 17.08 Ю 1 35 км 4/4 1500 м
[Cu med, cong]
+29.8 +16.9 46 +33 +44 душно 1015.5 1004.4
12 17.08 СВ 1 35 км 4/4 1500 м
[Cu med, cong]
+29.9 +15.6 42 +33 +42 душно 1015.2 1004.1
13 17.08 В 1 35 км 4/4 1500 м
[Cu med, cong]
+32.1 +16.0 38 +35 +43 очень
душно
1014.6 1003.5
14 17.08 В 1 35 км 4/4 1500 м
[Cu med, cong]
+32.6 +15.6 36 +35 +41 душно 1014.1 1003.1
15 17.08 СВ 1 35 км 3/3 1500 м
[Cu med, cong]
+31.4 +14.1 35 +33 +37 жарко 1014.0 1002.9
16 17.08 В 1 35 км 3/3 1500 м
[Cu med, cong]
+32.1 +14.7 35 +34 +35 душно 1013.7 1002.7
17 17.08 СВ 1 35 км 3/3 1500 м
[Cu med, cong]
+30.4 +14.5 38 +32 +33 жарко 1013.9 1002.8
18 17.08 штиль 0 30 км 1/1 1500 м
[Cu med, cong]
+26.1 +15.8 53 +29 +29 жарко 1014.4 1003.1 +32.9
19 17.08 штиль 0 25 км ясно +23.0 +15.8 64 +27 +27 душно 1015.2 1003.8
20 17.08 штиль 0 20 км ясно +21.1 +16.3 74 +24 +24 комфорт 1015.6 1004.1
21 17.08 штиль 0 15 км ясно +19.8 +16.3 80 +22 +22 комфорт 1016.0 1004.5
22 17.08 штиль 0 15 км ясно +18.7 +16.1 85 +20 +20 1016.1 1004.5
23 17.08 штиль 0 15 км ясно +18.8 +16.4 86 +20 +20 1016.1 1004.5
00 18.08 штиль 0 15 км ясно +18.1 +16.3 89 +18 +18 1016.2 1004.6
01 18.08 штиль 0 10 км ясно +16.9 +15.4 91 +17 +17 1016.3 1004.7
02 18.08 штиль 0 10 км ясно +16.2 +15.2 94 +16 +16 1016.6 1004.9
03 18.08 штиль 0 10 км ясно +16.2 +15.1 93 +16 +16 1016.8 1005.1
04 18.08 штиль 0 10 км ясно +15.7 +14.7 94 +15 +15 1017.3 1005.6
05 18.08 штиль 0 12 км ясно +16.1 +15.3 95 +16 +17 1017.5 1005.8

 

Местоположение метеостанции Paks (Венгрия): широта 46.58 долгота 18.85 высота над уровнем моря 98 м.

В архиве по умолчанию представлена погода в Paks за последнюю неделю. Архивные данные за месяц целиком и за предыдущие месяцы, начиная с января 2011 года, Вы можете получить, выбрав интересующий диапазон дат из раскрывающегося списка и нажав кнопку "Ввод!".


*Определитесь, кто Вы:
робот инопланетянин человек

Внимание! Время в таблицах - всемирное. Для получения местного времени необходимо прибавить поправку, которая в Paks равна 1 ч.

Смотрите также архив погоды в соседних городах и на ближайших метеорологических станциях:

Погода в Baja (Венгрия) (46 км)
Погода в Agard (Венгрия) (69 км)
Погода в Siofok (Венгрия) (72 км)
Погода в Kecskemet (Венгрия) (78 км)
Погода в Pecs (Венгрия) (80 км)
Погода в Kaposvar (Венгрия) (81 км)
Погода в Palic (Сербия) (89 км)
Погода в Sombor (Сербия) (93 км)
Погода в Veszprem (Венгрия) (95 км)
Погода в Budapest (Венгрия) (98 км)

Пояснения к столбцам:

Ветер - указаны скорость ветра в м/с - средняя за 10 мин, порывы в срок и между сроками (в фигурных скобках) и направление, откуда дует ветер: С - северный, СВ - северо-восточный, В - восточный, ЮВ - юго-восточный, Ю - южный, ЮЗ - юго-западный, З - западный, СЗ - северо-западный.
Видимость - горизонтальная дальность видимости в метрах или километрах. При видимости от 1 до 10 км при отсутствии осадков обычно наблюдается дымка, при ухудшении видимости до 1 км и менее - туман. В сухую погоду видимость может ухудшаться дымом, пылью или мглою.
Явления - указаны атмосферные явления, наблюдавшиеся в срок или в последний час перед сроком; фигурными скобками обозначены явления, наблюдавшиеся между сроками (за 1-3 часа до срока); квадратными скобками обозначены град или гололедные отложения с указанием их диаметра в мм.
Облачность - указаны через наклонную черту общая и нижняя облачность в баллах и высота нижней границы облаков в метрах; квадратными скобками обозначены формы облаков: Ci - перистые, Cs - перисто-слоистые, Cc - перисто-кучевые, Ac - высококучевые, As - высокослоистые, Sc - слоисто-кучевые, Ns - слоисто-дождевые, Cu - кучевые, Cb - кучево-дождевые. Подробнее классификацию облаков см. в Атласе облаков (PDF).
T - Температура воздуха - температура, измеренная на высоте 2 м над землей.
Td - Температура точки росы - температура, при понижении до которой содержащийся в воздухе водяной пар достигнет насыщения.
f - Относительная влажность воздуха - влажноcть воздуха, измеренная на высоте 2 м над землей.
Te - Эффективная температура - температура, которую ощущает одетый по сезону человек в тени. Характеристика душности погоды. При расчете учитывается влияние влажности воздуха и скорости ветра на теплоощущения человека.
Tes - Эффективная температура на солнце - температура, которую ощущает человек, с поправкой на солнечный нагрев. Характеристика знойности погоды. Зависит от высоты солнца над горизонтом, облачности и скорости ветра. Ночью, в пасмурную погоду, а также при ветре 12 м/с и более поправка равна нулю.
P - Атмосферное давление - приведенное к уровню моря атмосферное давление.
Po - Атмосферное давление - измеренное на уровне метеостанции атмосферное давление.
Tmin - Минимальная температура - минимум температуры воздуха на высоте 2 м над землей.
Tmax - Максимальная температура - максимум температуры воздуха на высоте 2 м над землей.
R - Количество осадков - Количество выпавших осадков за период времени, мм. При наведении курсора мыши на число - период времени, за который выпало указанное количество осадков.
R24 - Количество осадков - Количество выпавших осадков за 24 часа, мм.
S - Снежный покров - Высота снежного покрова, см. При наведении курсора мыши на число - состояние снежного покрова и степень покрытия местности в баллах.